Back to catalog

STARLINK-4141

AliveCommunicationsVLEO
NORAD 53138·PAYLOAD·🇺🇸 United States

Launched Jul 17, 2022 from Cape Canaveral Space Force Station

Loading…

Next Passes (next 24 hours)

TLE

FreshSource: CelesTrak SupGP

Epoch: Sep 14, 2026, 21:15 UTC

1 53138C 22083G   26257.88590278  .00020346  00000+0  65478-3 0  2578
2 53138  53.1600  29.9713 0001297  81.7442 243.1784 15.31667706    15

Track STARLINK-4141 in real time with AllMySat

Download on the App Store